Overview Statistics Trail Chart Weather Telemetry Raw packets
 

This is the latest recevied weather packets stored in our database for station/object ea1bqo-1. If no packets are shown the sender has not sent any weather packets the latest 10 day(s).

<< 1 2 3 4 5 6 7 >>
Time Temp. Humidity Pressure Rain* Wind** Luminosity Snow
1788571740 20° C 53% 1019 hPa 0 mm - - -
1788571200 20° C 53% 1019.2 hPa 0 mm - - -
1788570660 20° C 53% 1019.1 hPa 0 mm - - -
1788570120 20° C 55% 1019.1 hPa 0 mm - - -
1788569580 20° C 54% 1018.9 hPa 0 mm - - -
1788569040 20.56° C 53% 1019.5 hPa 0 mm - - -
1788568500 20.56° C 52% 1019.5 hPa 0 mm - - -
1788567960 20.56° C 53% 1019.9 hPa 0 mm - - -
1788567420 20° C 55% 1019.6 hPa 0 mm - - -
1788566880 20° C 56% 1019.9 hPa 0 mm - - -
1788566340 19.44° C 56% 1020.1 hPa 0 mm - - -
1788565800 19.44° C 58% 1020.3 hPa 0 mm - - -
1788565260 19.44° C 58% 1020.1 hPa 0 mm - - -
1788564720 19.44° C 57% 1020.2 hPa 0 mm - - -
1788564180 19.44° C 56% 1020.5 hPa 0 mm - - -
1788563640 20° C 54% 1020.4 hPa 0 mm - - -
1788563100 20° C 53% 1020.2 hPa 0 mm - - -
1788562560 20.56° C 53% 1020 hPa 0 mm - - -
1788562020 20.56° C 51% 1019.9 hPa 0 mm - - -
1788561480 20.56° C 49% 1019.9 hPa 0 mm - - -
1788560939 21.11° C 49% 1019.8 hPa 0 mm - - -
1788560400 21.11° C 49% 1019.7 hPa 0 mm - - -
1788559860 21.11° C 48% 1019.6 hPa 0 mm - - -
1788559320 21.67° C 48% 1019.7 hPa 0 mm - - -
1788558780 21.11° C 49% 1019.6 hPa 0 mm - - -

* Rain latest hour (hover to see other rain measurements)
** Current wind speed in m/s (hover to see current wind gust speed)